• In Lithuania
  • List of Countries
  • For 7 days
  • Water Temperature
  • Satellite Maps
  • Weather Map
  • Weather Widgets
  • user-avatar
    Login

    Hourly Weather Bezopasnoe

    Today, 19 October, Friday

    Time Temperature Precipitation Wind Pressure Humidity
    00:00 +15°C° 0 mm 5 mps 756 mmHg 72%
    01:00 +14°C° 0 mm 5 mps 756 mmHg 76%
    02:00 +14°C° 0 mm 5 mps 756 mmHg 79%
    03:00 +13°C° 0 mm 5 mps 756 mmHg 83%
    04:00 +13°C° 0 mm 5 mps 756 mmHg 85%
    05:00 +13°C° 0 mm 5 mps 756 mmHg 87%
    06:00 +13°C° 0 mm 5 mps 756 mmHg 90%
    07:00 +14°C° 0 mm 5 mps 756 mmHg 84%
    08:00 +15°C° 0 mm 6 mps 756 mmHg 78%
    09:00 +16°C° 0 mm 6 mps 756 mmHg 71%
    10:00 +19°C° 0 mm 6 mps 756 mmHg 65%
    11:00 +20°C° 0 mm 6 mps 756 mmHg 58%
    12:00 +22°C° 0 mm 6 mps 756 mmHg 51%
    13:00 +22°C° 0 mm 6 mps 755 mmHg 49%
    14:00 +23°C° 0 mm 6 mps 755 mmHg 48%
    15:00 +23°C° 0 mm 6 mps 755 mmHg 46%
    16:00 +22°C° 0 mm 5 mps 755 mmHg 52%
    17:00 +20°C° 0 mm 4 mps 754 mmHg 58%
    18:00 +19°C° 0 mm 4 mps 754 mmHg 63%
    19:00 +18°C° 0 mm 4 mps 754 mmHg 67%
    20:00 +17°C° 0 mm 4 mps 754 mmHg 71%
    21:00 +17°C° 0 mm 4 mps 754 mmHg 75%
    22:00 +15°C° 0 mm 4 mps 754 mmHg 78%
    23:00 +15°C° 0 mm 4 mps 754 mmHg 82%

    Tomorrow, 20 October, Saturday

    Time Temperature Precipitation Wind Pressure Humidity
    00:00 +14°C° 0 mm 3 mps 754 mmHg 85%
    01:00 +14°C° 0 mm 3 mps 754 mmHg 86%
    02:00 +14°C° 0 mm 3 mps 754 mmHg 88%
    03:00 +13°C° 0 mm 3 mps 754 mmHg 90%
    04:00 +13°C° 0 mm 3 mps 754 mmHg 89%
    05:00 +14°C° 0 mm 2 mps 753 mmHg 88%
    06:00 +14°C° 0 mm 2 mps 753 mmHg 88%
    07:00 +15°C° 0 mm 2 mps 753 mmHg 80%
    08:00 +17°C° 0 mm 2 mps 754 mmHg 72%
    09:00 +18°C° 0 mm 2 mps 754 mmHg 64%
    10:00 +20°C° 0 mm 2 mps 753 mmHg 56%
    11:00 +23°C° 0 mm 1 mps 753 mmHg 48%
    12:00 +25°C° 0 mm 1 mps 753 mmHg 41%
    13:00 +25°C° 0 mm 1 mps 753 mmHg 38%
    14:00 +26°C° 0 mm 1 mps 753 mmHg 36%
    15:00 +26°C° 0 mm 1 mps 752 mmHg 34%
    16:00 +25°C° 0 mm 1 mps 752 mmHg 38%
    17:00 +23°C° 0 mm 2 mps 753 mmHg 43%
    18:00 +21°C° 0 mm 2 mps 753 mmHg 47%
    19:00 +20°C° 0 mm 2 mps 753 mmHg 50%
    20:00 +20°C° 0 mm 2 mps 753 mmHg 52%
    21:00 +19°C° 0 mm 2 mps 753 mmHg 55%
    22:00 +20°C° 0 mm 1 mps 753 mmHg 55%
    23:00 +19°C° 0 mm 1 mps 752 mmHg 56%

    Day after tomorrow, 21 October, Sunday

    Time Temperature Precipitation Wind Pressure Humidity
    00:00 +19°C° 0 mm 1 mps 752 mmHg 57%
    01:00 +19°C° 0 mm 1 mps 752 mmHg 58%
    02:00 +18°C° 0 mm 1 mps 752 mmHg 59%
    03:00 +18°C° 0 mm 1 mps 752 mmHg 59%
    04:00 +18°C° 0 mm 1 mps 752 mmHg 61%
    05:00 +16°C° 0 mm 1 mps 752 mmHg 62%
    06:00 +16°C° 0 mm 1 mps 752 mmHg 63%
    07:00 +18°C° 0 mm 1 mps 752 mmHg 59%
    08:00 +20°C° 0 mm 1 mps 752 mmHg 55%
    09:00 +21°C° 0 mm 1 mps 753 mmHg 51%
    10:00 +23°C° 0 mm 2 mps 752 mmHg 47%
    11:00 +24°C° 0 mm 2 mps 752 mmHg 43%
    12:00 +26°C° 0 mm 2 mps 752 mmHg 39%
    13:00 +26°C° 0 mm 3 mps 752 mmHg 38%
    14:00 +26°C° 0 mm 3 mps 752 mmHg 38%
    15:00 +26°C° 0 mm 3 mps 752 mmHg 37%
    16:00 +25°C° 0 mm 3 mps 752 mmHg 42%
    17:00 +22°C° 0 mm 3 mps 752 mmHg 48%
    18:00 +21°C° 0 mm 3 mps 752 mmHg 53%
    19:00 +20°C° 0 mm 3 mps 752 mmHg 56%
    20:00 +20°C° 0 mm 3 mps 752 mmHg 60%
    21:00 +19°C° 0 mm 4 mps 752 mmHg 63%
    22:00 +18°C° 0 mm 4 mps 752 mmHg 66%
    23:00 +18°C° 0 mm 3 mps 752 mmHg 69%

    22 October, Monday

    Time Temperature Precipitation Wind Pressure Humidity
    00:00 +17°C° 0 mm 3 mps 752 mmHg 72%
    01:00 +17°C° 0 mm 3 mps 752 mmHg 75%
    02:00 +16°C° 0 mm 3 mps 752 mmHg 78%
    03:00 +16°C° 0 mm 3 mps 752 mmHg 82%
    04:00 +16°C° 0 mm 3 mps 752 mmHg 83%
    05:00 +14°C° 0 mm 3 mps 752 mmHg 85%
    06:00 +14°C° 0 mm 4 mps 752 mmHg 87%
    07:00 +15°C° 0 mm 4 mps 752 mmHg 84%
    08:00 +15°C° 0 mm 4 mps 752 mmHg 82%
    09:00 +17°C° 0 mm 4 mps 753 mmHg 79%
    10:00 +18°C° 0 mm 4 mps 753 mmHg 74%
    11:00 +19°C° 0 mm 3 mps 753 mmHg 69%
    12:00 +19°C° 0 mm 3 mps 753 mmHg 64%
    13:00 +19°C° 0.4 mm 2 mps 753 mmHg 65%
    14:00 +19°C° 0.4 mm 2 mps 753 mmHg 66%
    15:00 +20°C° 0.4 mm 1 mps 753 mmHg 68%
    16:00 +19°C° 0.2 mm 1 mps 753 mmHg 71%
    17:00 +18°C° 0.2 mm 2 mps 753 mmHg 74%
    18:00 +17°C° 0.2 mm 2 mps 753 mmHg 77%
    19:00 +17°C° 0 mm 2 mps 753 mmHg 78%
    20:00 +16°C° 0 mm 2 mps 753 mmHg 78%
    21:00 +16°C° 0 mm 2 mps 753 mmHg 79%
    22:00 +16°C° 0 mm 2 mps 753 mmHg 80%
    23:00 +15°C° 0 mm 2 mps 753 mmHg 80%

    23 October, Tuesday

    Time Temperature Precipitation Wind Pressure Humidity
    00:00 +15°C° 0 mm 2 mps 753 mmHg 81%
    01:00 +15°C° 0 mm 2 mps 753 mmHg 82%
    02:00 +15°C° 0 mm 1 mps 753 mmHg 83%
    03:00 +14°C° 0 mm 1 mps 753 mmHg 83%
    04:00 +14°C° 0 mm 1 mps 753 mmHg 84%
    05:00 +14°C° 0 mm 1 mps 753 mmHg 85%
    06:00 +14°C° 0 mm 1 mps 753 mmHg 86%
    07:00 +15°C° 0 mm 2 mps 753 mmHg 81%
    08:00 +16°C° 0 mm 2 mps 753 mmHg 75%
    09:00 +18°C° 0 mm 2 mps 753 mmHg 70%
    10:00 +19°C° 0 mm 2 mps 753 mmHg 64%
    11:00 +21°C° 0 mm 2 mps 752 mmHg 58%
    12:00 +23°C° 0 mm 2 mps 752 mmHg 51%
    13:00 +24°C° 0 mm 2 mps 752 mmHg 49%
    14:00 +24°C° 0 mm 2 mps 751 mmHg 47%
    15:00 +25°C° 0 mm 2 mps 751 mmHg 45%
    16:00 +24°C° 0.2 mm 2 mps 751 mmHg 49%
    17:00 +22°C° 0.2 mm 1 mps 751 mmHg 54%
    18:00 +21°C° 0.2 mm 1 mps 751 mmHg 59%
    19:00 +20°C° 0.5 mm 2 mps 751 mmHg 62%
    20:00 +19°C° 0.5 mm 2 mps 751 mmHg 65%
    21:00 +19°C° 0.5 mm 2 mps 751 mmHg 68%
    22:00 +18°C° 0.3 mm 2 mps 751 mmHg 73%
    23:00 +17°C° 0.3 mm 2 mps 751 mmHg 78%

    24 October, Wednesday

    Time Temperature Precipitation Wind Pressure Humidity
    00:00 +17°C° 0.3 mm 2 mps 751 mmHg 82%
    01:00 +16°C° 0 mm 2 mps 751 mmHg 86%
    02:00 +15°C° 0 mm 1 mps 751 mmHg 90%
    03:00 +15°C° 0 mm 1 mps 751 mmHg 93%
    04:00 +14°C° 0 mm 1 mps 751 mmHg 94%
    05:00 +14°C° 0 mm 1 mps 751 mmHg 94%
    06:00 +13°C° 0 mm 0 mps 751 mmHg 95%
    07:00 +15°C° 0 mm 1 mps 751 mmHg 90%
    08:00 +16°C° 0 mm 1 mps 751 mmHg 85%
    09:00 +18°C° 0 mm 1 mps 751 mmHg 81%
    10:00 +19°C° 0 mm 1 mps 750 mmHg 73%
    11:00 +20°C° 0 mm 2 mps 750 mmHg 65%
    12:00 +21°C° 0 mm 2 mps 749 mmHg 57%
    13:00 +23°C° 0 mm 2 mps 748 mmHg 54%
    14:00 +24°C° 0 mm 2 mps 747 mmHg 51%
    15:00 +24°C° 0 mm 3 mps 747 mmHg 49%
    16:00 +22°C° 0 mm 3 mps 746 mmHg 52%
    17:00 +21°C° 0 mm 3 mps 746 mmHg 56%
    18:00 +20°C° 0 mm 3 mps 745 mmHg 60%
    19:00 +19°C° 0 mm 3 mps 745 mmHg 60%
    20:00 +19°C° 0 mm 3 mps 744 mmHg 60%
    21:00 +18°C° 0 mm 4 mps 743 mmHg 60%
    22:00 +18°C° 0 mm 4 mps 743 mmHg 60%
    23:00 +18°C° 0 mm 3 mps 742 mmHg 60%
    Show more